2024-149DF (60569 NORAD) Tracking and Keplerian Element Data

This shows tracking and keplerian element data for the satellite.

Feedback or suggestion? Click here.




ElementValue
Catalog60569
Name2024-149DF
Epoch Orbit849
Epoch Day286.77098427
Epoch Year2024
RAAN1.4449
Inclination97.7449
Eccentricity0.0001237
Argument of Perigee277.4924
Mean Anonmoly82.6157
Mean Motion14.96261509
Decay Rate0.0004176
L11 60569U 24149DF 24286.77098427 .00041760 00000+0 36834-2 0 9995
L22 60569 97.7449 1.4449 0001237 277.4924 82.6157 14.96261509 8491



Live tracking and technical data element details for 2024-149DF (NORAD 60569). 2024-149DF can be tracked NOW for your location showing map with azimuth and elevation plus other details from your city location.







IsCatalogInMostPopularTable: catalog: 60569, numindb: 5
Update: records affected: 1



GetName: 60569 2024-149DF

Hit Count: updated at: Wed, 04 Dec 2024 18:55:17 GMT